Location: Asheville, NC
(35.6000°N, 82.5500°W)
Time: 02:37:28
(UTC-04:00)

ITAMSAT 1 - Visible Passes

Search period start: 18 July 2018 00:00
Search period end: 28 July 2018 00:00
Orbit: 785 x 796 km, 98.9° (Epoch: 17 July)

Date Brightness Start Highest point End Pass type
(mag) Time Alt. Az. Time Alt. Az. Time Alt. Az.
18 Jul 8.6 05:22:41 10° NNE 05:27:43 47° E 05:32:42 10° S visible
19 Jul 9.7 04:54:00 10° NE 04:58:11 24° E 05:02:20 10° SSE visible
20 Jul 10.4 04:26:40 10° ENE 04:28:31 12° E 04:30:22 10° ESE visible
21 Jul 8.2 05:33:51 10° NNE 05:39:02 61° ESE 05:44:08 10° S visible
22 Jul 9.3 05:04:57 10° NE 05:09:32 31° E 05:14:04 10° SSE visible
23 Jul 10.2 04:36:51 10° ENE 04:39:55 16° E 04:42:57 10° SE visible
24 Jul 7.8 05:45:04 10° NNE 05:50:18 79° ESE 05:55:29 10° S visible
25 Jul 8.9 05:15:59 10° NNE 05:20:51 39° E 05:25:40 10° SSE visible
26 Jul 10.0 04:47:29 10° NE 04:51:16 20° E 04:55:02 10° SE visible
27 Jul 7.7 05:56:21 10° N 06:01:33 81° WNW 06:06:44 10° SSW visible
